Regional Weather Roundup
Issued by NWS

Home | Current Version | Previous Version | Graphics & Text | Print | Product List | Glossary On
Versions: 1 2 3 4 5 6 7 8 9 10 11 12 13 14 15 16 17 18 19 20 21 22 23 24 25 26 27 28 29 30 31 32 33 34 35 36 37 38 39 40 41 42 43 44 45 46 47 48 49 50
000
ASUS45 KSLC 192210
RWRUT

UTAH REGIONAL WEATHER ROUNDUP
NATIONAL WEATHER SERVICE SALT LAKE CITY UT
400 PM MDT THU APR 19 2018

UTZ001>011-023>025-192300-

NORTHERN UTAH

CITY           SKY/WX    TMP DP  RH WIND       PRES   REMARKS
BRIGHAM CITY   CLOUDY    64   2   8 N8        29.76F
DUGWAY         CLOUDY    61  10  13 W12G17    29.76S
HILL AFB       PTSUNNY   63  18  17 NW9       29.76F
LOGAN          CLOUDY    66  23  19 NW5       29.77F
OGDEN          PTSUNNY   65  19  17 NW10      29.75F
SALT LAKE CITY PTSUNNY   67  14  13 NW5       29.73F
TOOELE VALLEY  PTSUNNY   61  32  33 N13       29.76S
WENDOVER       PTSUNNY   62  14  15 E8        29.80S
HEBER CITY       N/A     63  12  14 SE15      29.77F
WEST JORDAN    PTSUNNY   65  23  20 S6        29.75S

$$

UTZ011>015-024>027-192300-

CENTRAL/NORTHEAST UTAH

CITY           SKY/WX    TMP DP  RH WIND       PRES   REMARKS
PROVO AIRPORT  PTSUNNY   66   9  10 E15G25    29.73F
MOAB/CANYONLAN CLOUDY    71   3   7 S22       29.68F
DELTA          CLOUDY    59  14  17 N6        29.74F
PRICE          CLOUDY    61  -3   7 VRB7      29.80F
RICHFIELD      MOSUNNY   61   9  12 S21G28    29.71F
ROOSEVELT      CLOUDY    63   5  10 E6        29.84F
VERNAL         CLOUDY    62   3   9 SW6       29.84F

$$

UTZ013>016-019>022-027-192300-

SOUTHERN UTAH

CITY           SKY/WX    TMP DP  RH WIND       PRES   REMARKS
BRYCE CANYON   CLOUDY    51   4  14 S15G24    29.78F
CEDAR CITY     PTSUNNY   53  17  24 S18G25    29.73S
MILFORD        CLOUDY    60  16  18 SW10G25   29.70F
ST GEORGE      MOCLDY    69   9   9 S23G36    29.70R
HANKSVILLE     PTSUNNY   68   7   9 E9        29.71F
KANAB          MOSUNNY   64   5   9 S22G32    29.75F
BLANDING         N/A     68   6   9 S10       29.83F

$$

REGIONAL REPORTS     COLORADO/ARIZONA

CITY           SKY/WX    TMP DP  RH WIND       PRES   REMARKS
CRAIG, CO      CLOUDY    65  16  15 E6        29.86F
GRAND JUNCTION CLOUDY    72   8   8 S6        29.74F
RIFLE, CO      CLOUDY    68  17  14 W12       29.81F
MONTROSE, CO   CLOUDY    70   4   7 SW16      29.81F
CORTEZ, CO     CLOUDY    66   8  10 SE22G41   29.81F
COLORADO CITY    N/A     64   9  11 SW13G24   29.77F
PAGE, AZ       MOSUNNY   72  -1   5 S22G36    29.65F
GRAND CANYON   MOSUNNY   59   5  11 SW37G53   29.79F
KINGMAN, AZ    SUNNY     64  14  14 SW31G38   29.81F
FLAGSTAFF, AZ  CLOUDY    53  10  18 S31G43    29.85F

$$

REGIONAL REPORTS    NEVADA/IDAHO/WYOMING

CITY           SKY/WX    TMP DP  RH WIND       PRES   REMARKS
LAS VEGAS, NV  PTSUNNY   63  29  27 SW16G31   29.78R
ELY, NY        CLOUDY    46  28  49 NW14G21   29.79F
ELKO, NV       CLOUDY    51  30  44 NE16      29.86S
POCATELLO, ID  CLOUDY    63  20  19 N10G20    29.84F
BURLEY, ID     PTSUNNY   63  18  17 N13G20    29.81F
FORT BRIDGER,    N/A     59   0   9 S17G23    29.90F
EVANSTON, WY   CLOUDY    56   0  10 S13G24    29.85F
ROCK SPRINGS,  CLOUDY    57  -5   8 SW17      29.91F
KEMMERER, WY   CLOUDY    55   1  11 E14G21    29.88F

$$



USA.gov is the U.S. government's official web portal to all federal, state and local government web resources and services.